Flag for China Weather past 2 weeks in Changchun, Jilin, China

Now
86 °F

Sunny.


Feels Like: 85 °F
Forecast: 67 / 84 °F
Wind: 8 mph from Southwest

Location: Changchun Airport

Current Time: Aug 3, 2015 at 5:23:54 PM

Latest Report: Aug 3, 2015 at 5:00 PM


Visibility: 10 mi

Pressure: 29.53 "Hg

Humidity: 40%

Dew point: 59 °F

Location of ChangchunLocation

Historic Weather in Changchun — Graph

°F

Changchun temperature yesterday

Maximum temperature yesterday: 82 °F (at 10:00 AM)
Minimum temperature yesterday: 70 °F (at 3:00 AM)
Average temperature yesterday: 77 °F

Past Weeks' High & Low Weather Summary

 TemperatureHumidityPressure
High90 °F (Jul 20, 12:00 PM)94% (Jul 21, 8:00 PM)29.86 "Hg (Jul 21, 8:00 PM)
Low64 °F (Jul 28, 4:00 AM)29% (Jul 27, 1:00 PM)29.50 "Hg (Aug 3, 4:00 PM)
Average77 °F68%29.69 "Hg
* Reported Jul 19 4:00 PM — Aug 3 4:00 PM, Changchun, Weather by CustomWeather, © 2015

Note: Actual official high and low records may vary slightly from our data, if they occured in-between our weather recording intervals... More about our weather records

Advertising

Changchun weather history for previous 24 hours

 ConditionsComfort  
Time TempWeatherWind HumidityBarometerVisibility
4:00 PM
Mon, Aug 3
88 °FPassing clouds.15 mph38%29.50 "HgN/A
3:00 PM88 °FScattered clouds.13 mph40%29.53 "HgN/A
2:00 PM90 °FScattered clouds.17 mph36%29.53 "HgN/A
1:00 PM88 °FScattered clouds.13 mph33%29.53 "HgN/A
12:00 PM88 °FPassing clouds.13 mph46%29.56 "HgN/A
11:00 AM84 °FPassing clouds.13 mph58%29.59 "HgN/A
10:00 AM82 °FPassing clouds.10 mph66%29.59 "HgN/A
9:00 AM81 °FPassing clouds.10 mph66%29.59 "Hg4 mi
8:00 AM79 °FPassing clouds.8 mph70%29.59 "Hg4 mi
7:00 AM75 °FFog.15 mph78%29.59 "Hg2 mi
6:00 AM73 °FFog.10 mph89%29.59 "Hg1 mi
5:00 AM72 °FFog.3 mph88%29.59 "Hg1 mi
4:00 AM73 °FFog.8 mph89%29.59 "Hg1 mi
3:00 AM73 °FPassing clouds.8 mph83%29.59 "Hg4 mi
2:00 AM73 °FPassing clouds.15 mph83%29.59 "HgN/A
1:00 AM73 °FPassing clouds.10 mph78%29.59 "HgN/A
12:00 AM75 °FPassing clouds.13 mph83%29.59 "HgN/A
11:00 PM
Sun, Aug 2
73 °FPassing clouds.6 mph83%29.59 "HgN/A
10:00 PM72 °FPassing clouds.10 mph78%29.59 "HgN/A
9:00 PM75 °FThunderstorms. Passing clouds.10 mph83%29.59 "Hg2 mi
8:00 PM77 °FPassing clouds.10 mph74%29.59 "HgN/A
7:00 PM81 °FPartly sunny.8 mph62%29.59 "HgN/A
6:00 PM81 °FPartly sunny.13 mph58%29.56 "HgN/A
5:00 PM82 °FScattered clouds.15 mph58%29.56 "HgN/A
Weather by CustomWeather, © 2015

See weather overviewHow to use our weather pages